[[{"header":{"parameterUnit":"m.s-1","parameterCategory":1,"la1":30.2992,"la2":30.254,"lo1":-89.0895,"lo2":-89.0443,"dy":0.0025,"dx":0.0025,"nx":19,"ny":19,"refTime":"2026-03-13T09:00:00:Z","depth":0,"parameterNumber":2,"parameterNumberName":"U-component_of_WINDS"},"data":[0,0,0,-1.2617,-1.2621,-1.2776,-1.2777,-1.3003,-1.3005,0,0,0,0,0,0,0,0,0,0,0,-1.2586,-1.2588,-1.2617,-1.2621,-1.2776,-1.2777,-1.3002,-1.3005,0,0,0,0,0,0,0,0,0,0,0,-1.2585,-1.2587,-1.259,-1.2622,-1.2776,-1.2777,-1.3002,-1.2875,0,0,0,0,0,0,0,0,0,0,-1.272,-1.2705,-1.2586,-1.259,-1.2623,-1.2776,-1.2777,-1.2869,-1.2883,-1.2943,0,-1.2998,0,-1.3005,-1.3021,-1.3022,0,0,0,-1.2611,-1.2693,-1.2721,-1.259,-1.2624,-1.2776,-1.2703,-1.2876,-1.2893,-1.2962,-1.3001,-1.3009,-1.3009,-1.3023,-1.3024,-1.34,-1.3402,0,0,-1.2602,-1.2622,-1.271,-1.2732,-1.2708,-1.2698,-1.2708,-1.2886,-1.2931,-1.3002,-1.3014,-1.3013,-1.3025,-1.3027,-1.3398,-1.34,0,0,0,-1.2585,-1.2617,-1.264,-1.2724,-1.2749,-1.2703,-1.2715,-1.2923,-1.2929,-1.3016,-1.3015,-1.3026,-1.3029,-1.3395,-1.3399,-1.353,0,0,0,-1.2579,-1.2606,-1.2637,-1.265,-1.2747,-1.2838,-1.2748,-1.2916,-1.2936,-1.3014,-1.3026,-1.3032,-1.3393,-1.3397,-1.3521,-1.359,0,0,0,-1.2571,-1.2605,-1.2632,-1.2651,-1.2718,-1.2834,-1.285,-1.292,-1.2936,-1.3022,-1.3032,-1.3391,-1.3396,-1.3513,-1.3577,-1.3697,0,0,0,-1.2568,-1.2746,-1.2634,-1.2833,-1.2717,-1.2912,-1.2849,-1.2993,-1.3083,-1.3027,-1.3393,-1.3398,-1.351,-1.3569,-1.3689,-1.3805,-1.3854,0,0,-1.2804,-1.2775,-1.289,-1.2795,-1.3015,-1.2887,-1.3127,-1.3191,-1.3182,-1.3328,-1.3337,-1.3524,-1.3576,-1.3696,-1.4114,-1.4153,0,0,0,-1.2972,-1.3056,-1.311,-1.3195,-1.3246,-1.3298,-1.3322,-1.3346,-1.3468,-1.326,-1.3596,-1.3627,-1.3697,-1.3752,-1.3785,-1.3845,-1.3423,-1.3422,-1.3422,-1.3339,-1.3315,-1.3505,-1.3501,-1.3584,-1.3606,-1.3673,-1.3709,-1.3662,-1.3741,-1.3787,-1.4043,-1.4108,-1.4133,-1.4195,-1.3842,-1.3842,-1.3843,-1.3843,-1.3686,-1.3802,-1.3733,-1.3893,-1.3868,-1.4002,-1.4031,-1.3992,-1.4116,-1.4007,-1.4067,-1.3955,-1.4176,-1.423,-1.3853,-1.3851,-1.385,-1.3849,-1.3848,-1.3927,-1.3979,-1.4002,-1.4123,-1.4219,-1.4207,-1.4329,-1.43,-1.4275,-1.4334,-1.4381,-1.4378,-1.4376,-1.4357,-1.4358,-1.4359,-1.4359,-1.436,-1.4361,-1.4171,-1.4192,-1.4298,-1.4366,-1.4417,-1.4481,-1.4504,-1.4554,-1.4603,-1.4573,-1.4573,-1.4521,-1.42,-1.4123,-1.4375,-1.4372,-1.437,-1.4369,-1.4368,-1.4541,-1.4452,-1.4615,-1.4666,-1.4744,-1.4842,-1.4802,-1.4907,-1.4944,-1.5006,-1.4938,-1.4704,-1.4674,-1.4647,-1.4584,-1.494,-1.494,-1.494,-1.494,-1.4748,-1.4728,-1.4888,-1.4972,-1.505,-1.503,-1.5218,-1.5237,-1.5244,-1.5266,-1.5208,-1.5119,-1.5093,-1.5079,-1.5043,-1.4984,-1.5434,-1.5434,-1.5434,-1.4976,-1.4962,-1.5127,-1.5129,-1.5188,-1.524,-1.5416,-1.5517,-1.5505,-1.5454,-1.5283,-1.5262,-1.5118,-1.5072,-1.5023,-1.4968,-1.4858,0,0]},{"header":{"parameterUnit":"m.s-1","parameterCategory":1,"la1":30.2992,"la2":30.254,"lo1":-89.0895,"lo2":-89.0443,"dy":0.0025,"dx":0.0025,"nx":19,"ny":19,"refTime":"2026-03-13T09:00:00:Z","depth":0,"parameterNumber":3,"parameterNumberName":"V-component_of_WINDS"},"data":[0,0,0,-2.893,-2.8932,-2.9018,-2.9018,-2.9119,-2.912,0,0,0,0,0,0,0,0,0,0,0,-2.8902,-2.8902,-2.893,-2.8932,-2.9018,-2.9018,-2.9119,-2.912,0,0,0,0,0,0,0,0,0,0,0,-2.8901,-2.8902,-2.8903,-2.8932,-2.9018,-2.9018,-2.9118,-2.9056,0,0,0,0,0,0,0,0,0,0,-2.8974,-2.8946,-2.8902,-2.8903,-2.8933,-2.9017,-2.9018,-2.9053,-2.906,-2.9077,0,-2.9093,0,-2.9108,-2.9126,-2.9126,0,0,0,-2.8933,-2.894,-2.8966,-2.8903,-2.8933,-2.9017,-2.8979,-2.9057,-2.9065,-2.9086,-2.9095,-2.9099,-2.911,-2.9127,-2.9127,-2.9222,-2.9222,0,0,-2.8929,-2.8915,-2.8961,-2.8971,-2.896,-2.8977,-2.8982,-2.9062,-2.907,-2.9095,-2.9101,-2.9111,-2.9127,-2.9128,-2.9222,-2.9222,0,0,0,-2.8914,-2.8912,-2.8936,-2.8967,-2.8983,-2.8979,-2.8985,-2.9066,-2.9075,-2.9102,-2.9113,-2.9128,-2.9129,-2.9222,-2.9222,-2.9227,0,0,0,-2.8911,-2.8903,-2.8934,-2.8926,-2.8982,-2.9026,-2.8988,-2.907,-2.9079,-2.9112,-2.9128,-2.913,-2.9221,-2.9222,-2.9226,-2.9231,0,0,0,-2.8897,-2.8902,-2.8913,-2.8925,-2.8962,-2.9026,-2.9039,-2.9072,-2.9086,-2.9126,-2.913,-2.9221,-2.9222,-2.9225,-2.9229,-2.925,0,0,0,-2.8877,-2.8917,-2.8913,-2.8961,-2.8961,-2.9029,-2.9039,-2.909,-2.9125,-2.9128,-2.9221,-2.9222,-2.9225,-2.9228,-2.9249,-2.9264,-2.927,0,0,-2.8919,-2.8921,-2.895,-2.895,-2.9014,-2.9017,-2.9081,-2.9126,-2.9142,-2.9194,-2.9196,-2.9226,-2.9229,-2.925,-2.9309,-2.9313,0,0,0,-2.8959,-2.8979,-2.9,-2.9033,-2.9069,-2.9099,-2.9136,-2.9152,-2.9197,-2.9167,-2.9241,-2.9243,-2.9255,-2.9263,-2.9267,-2.9277,-2.9226,-2.9225,-2.9225,-2.8998,-2.9017,-2.9065,-2.9093,-2.9125,-2.9162,-2.9189,-2.9216,-2.9225,-2.9242,-2.9257,-2.9291,-2.93,-2.9302,-2.9313,-2.9268,-2.9268,-2.9268,-2.9268,-2.906,-2.909,-2.9101,-2.9151,-2.9169,-2.9211,-2.9246,-2.9251,-2.929,-2.9282,-2.9293,-2.9281,-2.9307,-2.9317,-2.9269,-2.9269,-2.9268,-2.9268,-2.9268,-2.9086,-2.9104,-2.9124,-2.9173,-2.9208,-2.9234,-2.9271,-2.9287,-2.9301,-2.9313,-2.9329,-2.9329,-2.9329,-2.932,-2.932,-2.932,-2.932,-2.932,-2.932,-2.9105,-2.9127,-2.9158,-2.9198,-2.922,-2.9251,-2.9287,-2.9309,-2.9336,-2.9344,-2.9344,-2.9349,-2.9307,-2.9295,-2.9322,-2.9322,-2.9322,-2.9322,-2.9321,-2.9157,-2.9148,-2.9195,-2.9217,-2.9264,-2.9296,-2.9315,-2.9358,-2.9378,-2.9395,-2.9398,-2.9365,-2.9367,-2.9364,-2.9354,-2.9395,-2.9395,-2.9395,-2.9395,-2.9178,-2.9181,-2.9232,-2.9266,-2.9301,-2.9323,-2.9372,-2.9399,-2.9425,-2.9437,-2.9434,-2.9422,-2.9419,-2.9423,-2.9419,-2.941,-2.9464,-2.9464,-2.9465,-2.921,-2.9217,-2.9257,-2.9284,-2.9321,-2.9352,-2.9398,-2.9434,-2.9462,-2.9468,-2.9447,-2.9444,-2.9426,-2.9419,-2.9423,-2.9417,-2.94,0,0]}]]